CST,Max TemperatureF,Mean TemperatureF,Min TemperatureF,Max Dew PointF,MeanDew PointF,Min DewpointF,Max Humidity, Mean Humidity, Min Humidity, Max Sea Level PressureIn, Mean Sea Level PressureIn, Min Sea Level PressureIn, Max VisibilityMiles, Mean VisibilityMiles, Min VisibilityMiles, Max Wind SpeedMPH, Mean Wind SpeedMPH, Max Gust SpeedMPH,PrecipitationIn, CloudCover, Events, WindDirDegrees
2013-2-1,50,34,19,30,21,12,93,64,39,30.43,30.29,30.13,10,10,10,17,7,22,0.00,0,,116
2013-2-2,57,42,26,37,32,27,100,72,44,30.31,30.25,30.15,10,10,7,15,3,18,0.00,0,,306
2013-2-3,59,46,32,34,32,28,100,60,36,30.32,30.18,29.92,10,10,10,16,6,22,0.00,0,,161
2013-2-4,64,53,42,45,35,32,66,49,32,29.96,29.88,29.84,10,10,10,15,10,22,0.00,1,,356
2013-2-5,66,48,30,52,41,28,100,83,40,30.04,29.99,29.93,10,8,0,8,2,,0.00,2,Fog,359
2013-2-6,57,50,42,57,51,43,100,100,100,30.04,29.95,29.87,10,3,0,21,5,30,0.00,8,Fog-Rain,144
2013-2-7,64,53,41,59,49,36,100,91,73,30.19,29.95,29.81,10,6,1,31,14,37,0.05,6,Rain-Thunderstorm,24
2013-2-8,53,42,30,36,33,30,100,74,41,30.32,30.22,30.14,10,10,10,13,7,,0.00,0,,51
2013-2-9,46,42,37,46,39,34,100,91,70,30.13,29.94,29.70,10,7,1,21,11,29,0.00,5,,138
2013-2-10,60,48,37,52,36,28,100,62,36,30.06,29.81,29.67,10,9,2,18,12,24,0.08,1,Rain,260
2013-2-11,53,42,32,30,29,27,87,63,41,30.24,30.14,30.08,10,10,10,15,8,24,0.00,2,,38
2013-2-12,42,37,32,34,32,30,100,93,61,30.07,30.02,29.95,10,8,1,14,9,17,0.65,8,Rain-Snow,15
2013-2-13,53,42,32,37,32,28,100,78,41,30.09,30.04,29.99,10,8,1,10,6,,0.00,3,,259
2013-2-14,60,45,30,37,33,28,100,69,36,30.23,30.07,30.00,10,10,10,22,3,33,0.00,1,,356
2013-2-15,42,35,28,36,25,19,100,66,42,30.42,30.36,30.24,10,10,10,21,11,25,0.00,4,Rain-Snow,347
2013-2-16,51,38,26,32,30,21,100,73,40,30.40,30.25,30.08,10,10,7,16,7,21,0.00,1,Snow,219
2013-2-17,69,51,33,37,33,30,87,55,28,30.08,29.91,29.76,10,10,10,26,11,33,0.00,0,,175
2013-2-18,57,47,35,50,38,28,88,63,41,30.15,29.85,29.65,10,10,10,26,18,38,0.00,2,,265
2013-2-19,53,40,26,30,28,25,100,64,38,30.34,30.24,30.18,10,10,10,14,2,,0.00,1,,101
2013-2-20,42,37,32,36,33,28,100,94,57,30.20,30.08,29.87,10,8,1,20,12,25,0.70,8,Rain-Snow,109
2013-2-21,41,32,24,41,33,21,100,98,86,30.01,29.77,29.67,10,9,2,23,13,30,0.50,7,Snow-Thunderstorm,6
2013-2-22,37,29,21,25,21,18,93,77,56,30.16,30.09,30.00,10,10,10,14,9,20,0.00,0,,325
2013-2-23,46,34,21,32,26,19,100,77,53,30.12,30.01,29.89,10,10,10,8,1,,0.00,1,,71
2013-2-24,62,47,32,41,36,27,87,67,45,29.89,29.80,29.70,10,10,10,28,9,33,0.00,1,,131
2013-2-25,48,40,32,39,36,32,100,93,62,29.76,29.60,29.49,10,8,2,26,14,37,1.08,8,Rain-Snow-Thunderstorm,13
2013-2-26,46,38,30,34,32,30,100,84,57,29.94,29.79,29.62,10,9,2,24,17,34,0.00,3,Snow,320
2013-2-27,44,36,28,30,29,27,100,80,57,30.23,30.10,29.92,10,10,10,23,10,32,0.00,2,,318
2013-2-28,46,36,26,32,30,27,100,79,53,30.26,30.24,30.20,10,10,10,22,7,28,0.00,0,,317